Location: Podia
(1.5569°N, 32.3469°E)
Time: 21:12:51
(UTC+00:00)

Cosmos 371 Rocket - Pass Details

Date: 01 June 2020
Orbit: 683 x 699 km, 74.0° (Epoch: 05 July)

Event Time Altitude Azimuth Distance (km) Brightness Sun altitude
Rises 17:07:14 0° 186° (S) 3,046 6.4 -17.5°
Reaches altitude 10° 17:09:34 10° 182° (S) 2,130 5.6 -18.1°
Maximum altitude 17:14:18 61° 102° (ESE) 781 3.2 -19.1°
Drops below altitude 10° 17:19:02 10° 22° (NNE) 2,132 5.8 -20.2°
Sets 17:21:21 0° 19° (NNE) 3,048 6.7 -20.7°
